User: anonymous   Login
Location: NJAA Observatory
(40.6819°N, 74.8979°W)
Time: 12:40:56
(UTC-04:00)
Language:

Cosmos 2237 Rocket - Orbit

View from above orbital plane
View from above orbital plane
View from above satellite
View from above satellite

Ground track
Ground track

The orbit data is extracted from the following two-line orbital elements,

1 22566U 93016B   14303.15744644 -.00000021  00000-0  13767-4 0  1934
2 22566 071.0072 284.0573 0009440 167.7390 192.3964 14.14857255115338
Epoch (UTC): 30 October 2014 03:46:43
Eccentricity: 0.0009440
inclination: 71.0072°
perigee height: 836 km
apogee height: 849 km
right ascension of ascending node: 284.0573°
argument of perigee: 167.7390°
revolutions per day: 14.14857255
mean anomaly at epoch: 192.3964°
orbit number at epoch: 11533

The dashed part of the orbit path shows where the satellite is in the earth's shadow,  

DLR